User: anonymous   Login
Location: Trois-Rivi�res
(46.3500°N, 72.5500°W)
Time: 12:04:25
(UTC-04:00)
Language:

Cosmos 1544 - Orbit

View from above orbital plane
View from above orbital plane
View from above satellite
View from above satellite

Ground track
Ground track

The orbit data is extracted from the following two-line orbital elements,

1 14819U 84027A   17179.76119909 +.00000943 +00000-0 +35396-4 0  9997
2 14819 082.4833 016.1387 0014511 006.4568 353.6854 15.25821966817342
Epoch (UTC): 28 June 2017 18:16:07
Eccentricity: 0.0014511
inclination: 82.4833°
perigee height: 478 km
apogee height: 498 km
right ascension of ascending node: 16.1387°
argument of perigee: 6.4568°
revolutions per day: 15.25821966
mean anomaly at epoch: 353.6854°
orbit number at epoch: 81734

The dashed part of the orbit path shows where the satellite is in the earth's shadow,  

DLR